WetterOnline ( https://www.wetteronline.ch )

Wetter aktuell Kaiserbach

Aktuelles Wetter: Kaisersbach-Cronhütte (489m)

6-stündlich | Neueste Meldungen
Ortszeit Temperatur Wetter
Sa, 24.08. 20:00 21.1° C fast wolkenlos
Sa, 24.08. 14:00 23.6° C bewölkt
Sa, 24.08. 8:00 15.0° C bedeckt
Sa, 24.08. 2:00 12.0° C wolkenlos
Fr, 23.08. 20:00 20.5° C fast wolkenlos
Fr, 23.08. 14:00 22.6° C wolkenlos
Fr, 23.08. 8:00 11.1° C wolkenlos
Fr, 23.08. 2:00 9.8° C wolkenlos
Ortszeit Temperatur Wetter
So, 25.08. 1:00 15.7° C leicht bewölkt
So, 25.08. 0:50 15.7° C leicht bewölkt
So, 25.08. 0:40 15.8° C leicht bewölkt
So, 25.08. 0:30 15.9° C wolkig
So, 25.08. 0:20 15.9° C wolkig
So, 25.08. 0:10 16.0° C wolkig
So, 25.08. 0:00 16.0° C leicht bewölkt
Sa, 24.08. 23:30 16.4° C wolkenlos
Sa, 24.08. 23:00 16.9° C wolkenlos
Sa, 24.08. 22:30 17.4° C wolkenlos
Sa, 24.08. 22:00 17.8° C wolkenlos
Ortszeit Relative Feuchte Sichtweite
Sa, 24.08. 20:00 76% 26 km
Sa, 24.08. 14:00 59% 35 km
Sa, 24.08. 8:00 95% 12 km
Sa, 24.08. 2:00 97% 6 km
Fr, 23.08. 20:00 62% 60 km
Fr, 23.08. 14:00 48% 65 km
Fr, 23.08. 8:00 84% 17 km
Fr, 23.08. 2:00 96% 14 km
Ortszeit Relative Feuchte Sichtweite
So, 25.08. 1:00 96% 6 km
So, 25.08. 0:50 96% -
So, 25.08. 0:40 97% -
So, 25.08. 0:30 97% 4.5 km
So, 25.08. 0:20 97% -
So, 25.08. 0:10 98% -
So, 25.08. 0:00 97% 4.3 km
Sa, 24.08. 23:30 97% 7 km
Sa, 24.08. 23:00 96% 8 km
Sa, 24.08. 22:30 93% 11 km
Sa, 24.08. 22:00 92% 12 km
Ortszeit Niederschlagsmenge Niederschlagsart
Sa, 24.08. 20:00 0.0 l/m2 in 12 Std. -
Sa, 24.08. 14:00 0.0 l/m2 in 6 Std. -
Sa, 24.08. 8:00 0.0 l/m2 in 12 Std. -
Sa, 24.08. 2:00 0.0 l/m2 in 6 Std. -
Fr, 23.08. 20:00 0.0 l/m2 in 12 Std. -
Fr, 23.08. 14:00 0.0 l/m2 in 6 Std. -
Fr, 23.08. 8:00 0.0 l/m2 in 12 Std. -
Fr, 23.08. 2:00 0.0 l/m2 in 6 Std. -
Ortszeit Niederschlagsmenge Niederschlagsart
So, 25.08. 1:00 0.0 l/m2 in 1 Std. -
So, 25.08. 0:50 keine Meldung -
So, 25.08. 0:40 keine Meldung -
So, 25.08. 0:30 0.0 l/m2 in 1 Std. -
So, 25.08. 0:20 keine Meldung -
So, 25.08. 0:10 keine Meldung -
So, 25.08. 0:00 0.0 l/m2 in 1 Std. -
Sa, 24.08. 23:30 0.0 l/m2 in 1 Std. -
Sa, 24.08. 23:00 0.0 l/m2 in 1 Std. -
Sa, 24.08. 22:30 0.0 l/m2 in 1 Std. -
Sa, 24.08. 22:00 0.0 l/m2 in 1 Std. -
Ortszeit Stärke Spitze Richtung
km/h Bft. km/h Grad Sektor
Sa, 24.08. 20:00 4 1 18 300° NW
Sa, 24.08. 14:00 6 1 15 360° N
Sa, 24.08. 8:00 2 1 9 330° NW
Sa, 24.08. 2:00 0 0 7 - -
Fr, 23.08. 20:00 4 1 29 60° NO
Fr, 23.08. 14:00 11 2 25 100° O
Fr, 23.08. 8:00 0 0 4 - -
Fr, 23.08. 2:00 2 1 7 310° NW
Ortszeit Stärke Spitze Richtung
km/h Bft. km/h Grad Sektor
So, 25.08. 1:00 0 0 4 - -
So, 25.08. 0:50 0 0 - - -
So, 25.08. 0:40 2 1 - 330° NW
So, 25.08. 0:30 2 1 2 310° NW
So, 25.08. 0:20 2 1 - 310° NW
So, 25.08. 0:10 0 0 - 320° NW
So, 25.08. 0:00 0 0 4 - -
Sa, 24.08. 23:30 0 0 4 - -
Sa, 24.08. 23:00 0 0 4 - -
Sa, 24.08. 22:30 2 1 2 310° NW
Sa, 24.08. 22:00 0 0 4 - -
Ortszeit Untergrenze Bedeckung Gattung
total tief tief mittel hoch
Sa, 24.08. 20:00 1380 m 1/8 1/8 - - -
Sa, 24.08. 14:00 1140 m 7/8 7/8 - - -
Sa, 24.08. 8:00 1380 m 8/8 8/8 - - -
Sa, 24.08. 2:00 - 0/8 0/8 - - -
Fr, 23.08. 20:00 1410 m 1/8 1/8 - - -
Fr, 23.08. 14:00 - 0/8 0/8 - - -
Fr, 23.08. 8:00 - 0/8 0/8 - - -
Fr, 23.08. 2:00 - 0/8 0/8 - - -
Ortszeit Bedeckungsgrad in Achtel und Wolkenuntergrenze
So, 25.08. 1:00 4(1350m)
So, 25.08. 0:50 4(1350m)
So, 25.08. 0:40 3(1260m)
So, 25.08. 0:30 6(1260m) 6(1500m)
So, 25.08. 0:20 6(1260m)
So, 25.08. 0:10 6(1260m)
So, 25.08. 0:00 4(1290m)
Sa, 24.08. 23:30 keine Wolken
Sa, 24.08. 23:00 keine Wolken
Sa, 24.08. 22:30 keine Wolken
Sa, 24.08. 22:00 keine Wolken
Ortszeit Luftdruck NN (hPa) Tendenz (hPa in 3 Std.)
Sa, 24.08. 20:00 1019 - 0,3
Sa, 24.08. 14:00 1019 - 0,6
Sa, 24.08. 8:00 1021 - 0,3
Sa, 24.08. 2:00 1023 - 1,0
Fr, 23.08. 20:00 1022 - 0,3
Fr, 23.08. 14:00 1023 - 1,2
Fr, 23.08. 8:00 1027 + 0,1
Fr, 23.08. 2:00 1027 - 0,3
Ortszeit Luftdruck NN (hPa) Tendenz (hPa in 3 Std.)
So, 25.08. 1:00 1019 - 0,2
So, 25.08. 0:50 1019 keine Meldung
So, 25.08. 0:40 1019 keine Meldung
So, 25.08. 0:30 1019 - 0,3
So, 25.08. 0:20 1019 keine Meldung
So, 25.08. 0:10 1019 keine Meldung
So, 25.08. 0:00 1019 - 0,4
Sa, 24.08. 23:30 1019 - 0,3
Sa, 24.08. 23:00 1019 - 0,1
Sa, 24.08. 22:30 1019 - 0,1
Sa, 24.08. 22:00 1019 + 0,2
Ortszeit Schneehöhe (cm)
Sa, 24.08. 20:00 -
Sa, 24.08. 14:00 -
Sa, 24.08. 8:00 -
Sa, 24.08. 2:00 -
Fr, 23.08. 20:00 -
Fr, 23.08. 14:00 -
Fr, 23.08. 8:00 -
Fr, 23.08. 2:00 -
Ortszeit Schneehöhe (cm)
So, 25.08. 1:00 -
So, 25.08. 0:50 -
So, 25.08. 0:40 -
So, 25.08. 0:30 -
So, 25.08. 0:20 -
So, 25.08. 0:10 -
So, 25.08. 0:00 -
Sa, 24.08. 23:30 -
Sa, 24.08. 23:00 -
Sa, 24.08. 22:30 -
Sa, 24.08. 22:00 -
Link zu dieser Seite / Seite empfehlen

Das Wetter in ...